Regional Weather Roundup
Issued by NWS

Home | Current Version | Previous Version | Graphics & Text | Print | Product List | Glossary On
Versions: 1 2 3 4 5 6 7 8 9 10 11 12 13 14 15 16 17 18 19 20 21 22 23 24 25 26 27 28 29 30 31 32 33 34 35 36 37 38 39 40 41 42 43 44 45 46 47 48 49 50
000
ASUS43 KIND 221359
RWRIN

WEATHER ROUNDUP FOR INDIANA
NATIONAL WEATHER SERVICE INDIANAPOLIS IN
1000 AM EDT MON SEP 22 2014

NOTE: "FAIR" INDICATES FEW OR NO CLOUDS BELOW 12,000 FEET WITH NO
SIGNIFICANT WEATHER AND/OR OBSTRUCTIONS TO VISIBILITY.

* - STATION DOES NOT REPORT WEATHER SUCH AS PRECIPITATION OR FOG.

+ - STATION NOT QUALITY CONTROLLED BY THE NATIONAL WEATHER SERVICE.
    USE DATA WITH CAUTION...ESPECIALLY DEWPOINT AND RELATIVE
    HUMIDITY OBSERVATIONS.

INZ001>003-010>013-019-020-221500-
NORTHWEST INDIANA

CITY           SKY/WX    TMP DP  RH WIND       PRES   REMARKS
GARY /AIRPORT/ MOSUNNY   57  45  62 N7        30.26R
KNOX *+        SUNNY     49  40  70 CALM      30.27R
VALPARAISO     MOSUNNY   50  43  77 CALM      30.27R

$$

LMZ046-743>745-221500-
SOUTHERN LAKE MICHIGAN

STATION/POSITION TIME  TEMP WIND        PRES
                       AIR  DIR/SP/G
                 (UTC) (F)  (DEG/KT/KT) (MB)
MICHIGAN CITY    1300   49   90/  4/  5   N/A

$$

INZ004-005-014>016-021>024-221500-
NORTH CENTRAL INDIANA

CITY           SKY/WX    TMP DP  RH WIND       PRES   REMARKS
ELKHART        SUNNY     50  37  62 N6        30.25R
GOSHEN         SUNNY    N/A N/A N/A N7        30.25R
SOUTH BEND     SUNNY     52  39  61 N3        30.26R
WARSAW +       SUNNY     48  39  71 N8        30.26R

$$

INZ006>009-017-018-025>027-221500-
NORTHEAST INDIANA

CITY           SKY/WX    TMP DP  RH WIND       PRES   REMARKS
ANGOLA *+      SUNNY     48  37  66 NW9       30.24R
FORT WAYNE     MOSUNNY   50  39  66 N7        30.26R

$$

INZ028-029-035-036-043>045-051>053-221500-
WEST CENTRAL INDIANA

CITY           SKY/WX    TMP DP  RH WIND       PRES   REMARKS
GREENCASTLE +  PTSUNNY   52  46  82 N9        30.27R
LAFAYETTE      MOSUNNY   51  48  89 NE5       30.28R
TERRE HAUTE    SUNNY     56  48  74 NE8       30.27R

$$

INZ030>032-037>040-046>048-054>057-064-065-221500-
CENTRAL INDIANA

CITY           SKY/WX    TMP DP  RH WIND       PRES   REMARKS
ANDERSON       MOSUNNY   48  39  71 N14       30.26
FRANKFORT +    SUNNY     50  45  80 NE9       30.27R
INDIANAPOLIS   MOSUNNY   51  41  68 N9        30.25R
-EAGLE CREEK   SUNNY     51  40  65 N10       30.26R
KOKOMO *+      SUNNY     52  37  58 NE9       30.27R
MT COMFORT *+  SUNNY     50  37  62 NE12      30.25R
SHELBYVILLE    MOSUNNY   51  41  68 N8        30.25R
ZIONSVILLE +   SUNNY     49  42  77 N9        30.27R

$$

INZ033-034-041-042-049-050-058-059-221500-
EAST CENTRAL INDIANA

CITY           SKY/WX    TMP DP  RH WIND       PRES   REMARKS
MUNCIE         CLOUDY    48  40  73 N7        30.25R

$$

INZ060-061-067>069-081>083-085>088-221500-
SOUTHWEST INDIANA

CITY           SKY/WX    TMP DP  RH WIND       PRES   REMARKS
EVANSVILLE     MOSUNNY   59  51  75 NE10      30.26R

$$

INZ062-063-066-070>080-084-089>092-221500-
SOUTH CENTRAL AND SOUTHEAST INDIANA

CITY           SKY/WX    TMP DP  RH WIND       PRES   REMARKS
BLOOMINGTON    MOSUNNY   54  47  77 NE12      30.26R
SEYMOUR +      PTSUNNY   55  46  71 N7        30.25

$$




USA.gov is the U.S. government's official web portal to all federal, state and local government web resources and services.